Year,Month,Day,Hour,Minute,Value (Times are PST for temperature in C)
2021,06,29,00,00,27.70
2021,06,29,00,01,27.70
2021,06,29,00,02,27.70
2021,06,29,00,03,27.60
2021,06,29,00,04,27.60
2021,06,29,00,05,27.60
2021,06,29,00,06,27.50
2021,06,29,00,07,27.50
2021,06,29,00,08,27.40
2021,06,29,00,09,27.40
2021,06,29,00,10,27.40
2021,06,29,00,11,27.30
2021,06,29,00,12,27.30
2021,06,29,00,13,27.30
2021,06,29,00,14,27.20
2021,06,29,00,15,27.20
2021,06,29,00,16,27.20
2021,06,29,00,17,27.20
2021,06,29,00,18,27.20
2021,06,29,00,19,27.20
2021,06,29,00,20,27.20
2021,06,29,00,21,27.10
2021,06,29,00,22,27.10
2021,06,29,00,23,27.10
2021,06,29,00,24,27.10
2021,06,29,00,25,27.10
2021,06,29,00,26,27.10
2021,06,29,00,27,27.10
2021,06,29,00,28,27.00
2021,06,29,00,29,27.00
2021,06,29,00,30,27.00
2021,06,29,00,31,26.90
2021,06,29,00,32,26.90
2021,06,29,00,33,26.90
2021,06,29,00,34,26.90
2021,06,29,00,35,26.90
2021,06,29,00,36,26.90
2021,06,29,00,37,26.90
2021,06,29,00,38,26.90
2021,06,29,00,39,26.90
2021,06,29,00,40,26.90
2021,06,29,00,41,26.80
2021,06,29,00,42,26.80
2021,06,29,00,43,26.80
2021,06,29,00,44,26.80
2021,06,29,00,45,26.80
2021,06,29,00,46,26.80
2021,06,29,00,47,26.80
2021,06,29,00,48,26.80
2021,06,29,00,49,26.80
2021,06,29,00,50,26.80
2021,06,29,00,51,26.80
2021,06,29,00,52,26.80
2021,06,29,00,53,26.70
2021,06,29,00,54,26.70
2021,06,29,00,55,26.70
2021,06,29,00,56,26.70
2021,06,29,00,57,26.70
2021,06,29,00,58,26.70
2021,06,29,00,59,26.70
2021,06,29,01,00,26.60
2021,06,29,01,01,26.60
2021,06,29,01,02,26.60
2021,06,29,01,03,26.60
2021,06,29,01,04,26.60
2021,06,29,01,05,26.60
2021,06,29,01,06,26.60
2021,06,29,01,07,26.60
2021,06,29,01,08,26.60
2021,06,29,01,09,26.60
2021,06,29,01,10,26.60
2021,06,29,01,11,26.50
2021,06,29,01,12,26.50
2021,06,29,01,13,26.50
2021,06,29,01,14,26.40
2021,06,29,01,15,26.40
2021,06,29,01,16,26.40
2021,06,29,01,17,26.30
2021,06,29,01,18,26.30
2021,06,29,01,19,26.30
2021,06,29,01,20,26.30
2021,06,29,01,21,26.20
2021,06,29,01,22,26.20
2021,06,29,01,23,26.20
2021,06,29,01,24,26.20
2021,06,29,01,25,26.20
2021,06,29,01,26,26.10
2021,06,29,01,27,26.10
2021,06,29,01,28,26.10
2021,06,29,01,29,26.10
2021,06,29,01,30,26.00
2021,06,29,01,31,26.00
2021,06,29,01,32,26.00
2021,06,29,01,33,25.90
2021,06,29,01,34,25.90
2021,06,29,01,35,25.90
2021,06,29,01,36,25.80
2021,06,29,01,37,25.80
2021,06,29,01,38,25.80
2021,06,29,01,39,25.80
2021,06,29,01,40,25.80
2021,06,29,01,41,25.80
2021,06,29,01,42,25.80
2021,06,29,01,43,25.80
2021,06,29,01,44,25.80
2021,06,29,01,45,25.90
2021,06,29,01,46,25.90
2021,06,29,01,47,25.90
2021,06,29,01,48,26.00
2021,06,29,01,49,26.00
2021,06,29,01,50,26.10
2021,06,29,01,51,26.10
2021,06,29,01,52,26.10
2021,06,29,01,53,26.10
2021,06,29,01,54,26.10
2021,06,29,01,55,26.10
2021,06,29,01,56,26.10
2021,06,29,01,57,26.20
2021,06,29,01,58,26.20
2021,06,29,01,59,26.20
2021,06,29,02,00,26.10
2021,06,29,02,01,26.10
2021,06,29,02,02,26.10
2021,06,29,02,03,26.10
2021,06,29,02,04,26.10
2021,06,29,02,05,26.00
2021,06,29,02,06,26.00
2021,06,29,02,07,26.00
2021,06,29,02,08,25.90
2021,06,29,02,09,25.80
2021,06,29,02,10,25.70
2021,06,29,02,11,25.70
2021,06,29,02,12,25.60
2021,06,29,02,13,25.50
2021,06,29,02,14,25.40
2021,06,29,02,15,25.40
2021,06,29,02,16,25.30
2021,06,29,02,17,25.30
2021,06,29,02,18,25.30
2021,06,29,02,19,25.20
2021,06,29,02,20,25.20
2021,06,29,02,21,25.20
2021,06,29,02,22,25.20
2021,06,29,02,23,25.20
2021,06,29,02,24,25.10
2021,06,29,02,25,25.10
2021,06,29,02,26,25.10
2021,06,29,02,27,25.10
2021,06,29,02,28,25.10
2021,06,29,02,29,25.10
2021,06,29,02,30,25.00
2021,06,29,02,31,25.00
2021,06,29,02,32,25.00
2021,06,29,02,33,25.00
2021,06,29,02,34,25.00
2021,06,29,02,35,25.00
2021,06,29,02,36,25.00
2021,06,29,02,37,25.00
2021,06,29,02,38,25.00
2021,06,29,02,39,25.00
2021,06,29,02,40,25.00
2021,06,29,02,41,25.00
2021,06,29,02,42,24.90
2021,06,29,02,43,24.90
2021,06,29,02,44,24.90
2021,06,29,02,45,24.90
2021,06,29,02,46,24.90
2021,06,29,02,47,24.80
2021,06,29,02,48,24.80
2021,06,29,02,49,24.80
2021,06,29,02,50,24.80
2021,06,29,02,51,24.70
2021,06,29,02,52,24.70
2021,06,29,02,53,24.70
2021,06,29,02,54,24.70
2021,06,29,02,55,24.70
2021,06,29,02,56,24.60
2021,06,29,02,57,24.60
2021,06,29,02,58,24.60
2021,06,29,02,59,24.60
2021,06,29,03,00,24.60
2021,06,29,03,01,24.60
2021,06,29,03,02,24.60
2021,06,29,03,03,24.50
2021,06,29,03,04,24.50
2021,06,29,03,05,24.50
2021,06,29,03,06,24.50
2021,06,29,03,07,24.50
2021,06,29,03,08,24.50
2021,06,29,03,09,24.50
2021,06,29,03,10,24.50
2021,06,29,03,11,24.40
2021,06,29,03,12,24.40
2021,06,29,03,13,24.40
2021,06,29,03,14,24.40
2021,06,29,03,15,24.40
2021,06,29,03,16,24.40
2021,06,29,03,17,24.40
2021,06,29,03,18,24.40
2021,06,29,03,19,24.40
2021,06,29,03,20,24.40
2021,06,29,03,21,24.30
2021,06,29,03,22,24.30
2021,06,29,03,23,24.30
2021,06,29,03,24,24.30
2021,06,29,03,25,24.30
2021,06,29,03,26,24.30
2021,06,29,03,27,24.20
2021,06,29,03,28,24.20
2021,06,29,03,29,24.20
2021,06,29,03,30,24.20
2021,06,29,03,31,24.20
2021,06,29,03,32,24.20
2021,06,29,03,33,24.20
2021,06,29,03,34,24.20
2021,06,29,03,35,24.20
2021,06,29,03,36,24.20
2021,06,29,03,37,24.20
2021,06,29,03,38,24.20
2021,06,29,03,39,24.20
2021,06,29,03,40,24.20
2021,06,29,03,41,24.20
2021,06,29,03,42,24.20
2021,06,29,03,43,24.10
2021,06,29,03,44,24.20
2021,06,29,03,45,24.20
2021,06,29,03,46,24.10
2021,06,29,03,47,24.10
2021,06,29,03,48,24.10
2021,06,29,03,49,24.10
2021,06,29,03,50,24.10
2021,06,29,03,51,24.10
2021,06,29,03,52,24.10
2021,06,29,03,53,24.10
2021,06,29,03,54,24.10
2021,06,29,03,55,24.10
2021,06,29,03,56,24.00
2021,06,29,03,57,24.00
2021,06,29,03,58,24.00
2021,06,29,03,59,24.00
2021,06,29,04,00,24.00
2021,06,29,04,01,24.00
2021,06,29,04,02,24.00
2021,06,29,04,03,23.90
2021,06,29,04,04,23.90
2021,06,29,04,05,23.90
2021,06,29,04,06,23.80
2021,06,29,04,07,23.80
2021,06,29,04,08,23.80
2021,06,29,04,09,23.80
2021,06,29,04,10,23.80
2021,06,29,04,11,23.80
2021,06,29,04,12,23.70
2021,06,29,04,13,23.70
2021,06,29,04,14,23.70
2021,06,29,04,15,23.70
2021,06,29,04,16,23.70
2021,06,29,04,17,23.60
2021,06,29,04,18,23.60
2021,06,29,04,19,23.60
2021,06,29,04,20,23.60
2021,06,29,04,21,23.60
2021,06,29,04,22,23.60
2021,06,29,04,23,23.60
2021,06,29,04,24,23.60
2021,06,29,04,25,23.60
2021,06,29,04,26,23.60
2021,06,29,04,27,23.60
2021,06,29,04,28,23.60
2021,06,29,04,29,23.60
2021,06,29,04,30,23.60
2021,06,29,04,31,23.60
2021,06,29,04,32,23.60
2021,06,29,04,33,23.60
2021,06,29,04,34,23.60
2021,06,29,04,35,23.60
2021,06,29,04,36,23.60
2021,06,29,04,37,23.60
2021,06,29,04,38,23.60
2021,06,29,04,39,23.60
2021,06,29,04,40,23.60
2021,06,29,04,41,23.60
2021,06,29,04,42,23.60
2021,06,29,04,43,23.70
2021,06,29,04,44,23.70
2021,06,29,04,45,23.70
2021,06,29,04,46,23.70
2021,06,29,04,47,23.70
2021,06,29,04,48,23.70
2021,06,29,04,49,23.70
2021,06,29,04,50,23.70
2021,06,29,04,51,23.70
2021,06,29,04,52,23.70
2021,06,29,04,53,23.70
2021,06,29,04,54,23.60
2021,06,29,04,55,23.60
2021,06,29,04,56,23.60
2021,06,29,04,57,23.60
2021,06,29,04,58,23.60
2021,06,29,04,59,23.50
2021,06,29,05,00,23.50
2021,06,29,05,01,23.50
2021,06,29,05,02,23.50
2021,06,29,05,03,23.50
2021,06,29,05,04,23.50
2021,06,29,05,05,23.50
2021,06,29,05,06,23.40
2021,06,29,05,07,23.50
2021,06,29,05,08,23.50
2021,06,29,05,09,23.50
2021,06,29,05,10,23.40
2021,06,29,05,11,23.40
2021,06,29,05,12,23.40
2021,06,29,05,13,23.40
2021,06,29,05,14,23.30
2021,06,29,05,15,23.30
2021,06,29,05,16,23.30
2021,06,29,05,17,23.30
2021,06,29,05,18,23.20
2021,06,29,05,19,23.20
2021,06,29,05,20,23.20
2021,06,29,05,21,23.30
2021,06,29,05,22,23.30
2021,06,29,05,23,23.30
2021,06,29,05,24,23.30
2021,06,29,05,25,23.30
2021,06,29,05,26,23.30
2021,06,29,05,27,23.30
2021,06,29,05,28,23.30
2021,06,29,05,29,23.30
2021,06,29,05,30,23.30
2021,06,29,05,31,23.30
2021,06,29,05,32,23.40
2021,06,29,05,33,23.40
2021,06,29,05,34,23.50
2021,06,29,05,35,23.50
2021,06,29,05,36,23.50
2021,06,29,05,37,23.50
2021,06,29,05,38,23.50
2021,06,29,05,39,23.50
2021,06,29,05,40,23.50
2021,06,29,05,41,23.50
2021,06,29,05,42,23.50
2021,06,29,05,43,23.50
2021,06,29,05,44,23.50
2021,06,29,05,45,23.50
2021,06,29,05,46,23.50
2021,06,29,05,47,23.60
2021,06,29,05,48,23.60
2021,06,29,05,49,23.70
2021,06,29,05,50,23.70
2021,06,29,05,51,23.80
2021,06,29,05,52,23.80
2021,06,29,05,53,23.90
2021,06,29,05,54,23.90
2021,06,29,05,55,24.00
2021,06,29,05,56,24.00
2021,06,29,05,57,24.10
2021,06,29,05,58,24.10
2021,06,29,05,59,24.10
2021,06,29,06,00,24.10
2021,06,29,06,01,24.10
2021,06,29,06,02,24.10
2021,06,29,06,03,24.10
2021,06,29,06,04,24.10
2021,06,29,06,05,24.10
2021,06,29,06,06,24.10
2021,06,29,06,07,24.10
2021,06,29,06,08,24.20
2021,06,29,06,09,24.20
2021,06,29,06,10,24.20
2021,06,29,06,11,24.30
2021,06,29,06,12,24.30
2021,06,29,06,13,24.40
2021,06,29,06,14,24.40
2021,06,29,06,15,24.40
2021,06,29,06,16,24.50
2021,06,29,06,17,24.50
2021,06,29,06,18,24.50
2021,06,29,06,19,24.50
2021,06,29,06,20,24.60
2021,06,29,06,21,24.60
2021,06,29,06,22,24.60
2021,06,29,06,23,24.60
2021,06,29,06,24,24.60
2021,06,29,06,25,24.70
2021,06,29,06,26,24.70
2021,06,29,06,27,24.80
2021,06,29,06,28,24.80
2021,06,29,06,29,24.80
2021,06,29,06,30,24.90
2021,06,29,06,31,24.90
2021,06,29,06,32,25.00
2021,06,29,06,33,25.00
2021,06,29,06,34,25.10
2021,06,29,06,35,25.10
2021,06,29,06,36,25.10
2021,06,29,06,37,25.20
2021,06,29,06,38,25.20
2021,06,29,06,39,25.20
2021,06,29,06,40,25.20
2021,06,29,06,41,25.30
2021,06,29,06,42,25.40
2021,06,29,06,43,25.40
2021,06,29,06,44,25.50
2021,06,29,06,45,25.60
2021,06,29,06,46,25.60
2021,06,29,06,47,25.70
2021,06,29,06,48,25.80
2021,06,29,06,49,25.80
2021,06,29,06,50,25.80
2021,06,29,06,51,25.90
2021,06,29,06,52,25.90
2021,06,29,06,53,26.00
2021,06,29,06,54,26.10
2021,06,29,06,55,26.20
2021,06,29,06,56,26.30
2021,06,29,06,57,26.40
2021,06,29,06,58,26.60
2021,06,29,06,59,26.70
2021,06,29,07,00,26.90
2021,06,29,07,01,27.00
2021,06,29,07,02,27.10
2021,06,29,07,03,27.20
2021,06,29,07,04,27.40
2021,06,29,07,05,27.50
2021,06,29,07,06,27.60
2021,06,29,07,07,27.70
2021,06,29,07,08,27.70
2021,06,29,07,09,27.70
2021,06,29,07,10,27.70
2021,06,29,07,11,27.80
2021,06,29,07,12,27.80
2021,06,29,07,13,27.80
2021,06,29,07,14,27.80
2021,06,29,07,15,27.80
2021,06,29,07,16,27.80
2021,06,29,07,17,27.80
2021,06,29,07,18,27.80
2021,06,29,07,19,27.80
2021,06,29,07,20,27.80
2021,06,29,07,21,27.80
2021,06,29,07,22,27.80
2021,06,29,07,23,27.80
2021,06,29,07,24,27.80
2021,06,29,07,25,27.80
2021,06,29,07,26,27.90
2021,06,29,07,27,27.90
2021,06,29,07,28,27.90
2021,06,29,07,29,27.90
2021,06,29,07,30,27.90
2021,06,29,07,31,27.90
2021,06,29,07,32,27.90
2021,06,29,07,33,27.80
2021,06,29,07,34,27.80
2021,06,29,07,35,27.90
2021,06,29,07,36,27.90
2021,06,29,07,37,27.90
2021,06,29,07,38,27.90
2021,06,29,07,39,27.90
2021,06,29,07,40,27.80
2021,06,29,07,41,27.80
2021,06,29,07,42,27.80
2021,06,29,07,43,27.70
2021,06,29,07,44,27.60
2021,06,29,07,45,27.60
2021,06,29,07,46,27.50
2021,06,29,07,47,27.50
2021,06,29,07,48,27.40
2021,06,29,07,49,27.40
2021,06,29,07,50,27.30
2021,06,29,07,51,27.20
2021,06,29,07,52,27.10
2021,06,29,07,53,27.00
2021,06,29,07,54,26.90
2021,06,29,07,55,26.90
2021,06,29,07,56,26.80
2021,06,29,07,57,26.80
2021,06,29,07,58,26.70
2021,06,29,07,59,26.70
2021,06,29,08,00,26.60
2021,06,29,08,01,26.60
2021,06,29,08,02,26.60
2021,06,29,08,03,26.70
2021,06,29,08,04,26.70
2021,06,29,08,05,26.80
2021,06,29,08,06,26.90
2021,06,29,08,07,26.90
2021,06,29,08,08,27.00
2021,06,29,08,09,27.00
2021,06,29,08,10,27.00
2021,06,29,08,11,27.00
2021,06,29,08,12,27.00
2021,06,29,08,13,27.00
2021,06,29,08,14,26.90
2021,06,29,08,15,26.90
2021,06,29,08,16,27.00
2021,06,29,08,17,27.10
2021,06,29,08,18,27.10
2021,06,29,08,19,27.20
2021,06,29,08,20,27.30
2021,06,29,08,21,27.40
2021,06,29,08,22,27.50
2021,06,29,08,23,27.60
2021,06,29,08,24,27.70
2021,06,29,08,25,27.70
2021,06,29,08,26,27.70
2021,06,29,08,27,27.80
2021,06,29,08,28,27.80
2021,06,29,08,29,27.80
2021,06,29,08,30,27.80
2021,06,29,08,31,27.80
2021,06,29,08,32,27.90
2021,06,29,08,33,27.90
2021,06,29,08,34,28.00
2021,06,29,08,35,28.00
2021,06,29,08,36,28.10
2021,06,29,08,37,28.10
2021,06,29,08,38,28.10
2021,06,29,08,39,28.10
2021,06,29,08,40,28.00
2021,06,29,08,41,28.00
2021,06,29,08,42,28.00
2021,06,29,08,43,27.90
2021,06,29,08,44,27.90
2021,06,29,08,45,28.00
2021,06,29,08,46,28.00
2021,06,29,08,47,28.00
2021,06,29,08,48,28.10
2021,06,29,08,49,28.10
2021,06,29,08,50,28.10
2021,06,29,08,51,28.10
2021,06,29,08,52,28.10
2021,06,29,08,53,28.10
2021,06,29,08,54,28.10
2021,06,29,08,55,28.10
2021,06,29,08,56,28.10
2021,06,29,08,57,28.20
2021,06,29,08,58,28.30
2021,06,29,08,59,28.30
2021,06,29,09,00,28.40
2021,06,29,09,01,28.40
2021,06,29,09,02,28.30
2021,06,29,09,03,28.30
2021,06,29,09,04,28.30
2021,06,29,09,05,28.30
2021,06,29,09,06,28.30
2021,06,29,09,07,28.20
2021,06,29,09,08,28.20
2021,06,29,09,09,28.20
2021,06,29,09,10,28.20
2021,06,29,09,11,28.20
2021,06,29,09,12,28.20
2021,06,29,09,13,28.20
2021,06,29,09,14,28.30
2021,06,29,09,15,28.30
2021,06,29,09,16,28.30
2021,06,29,09,17,28.30
2021,06,29,09,18,28.20
2021,06,29,09,19,28.20
2021,06,29,09,20,28.10
2021,06,29,09,21,28.10
2021,06,29,09,22,28.10
2021,06,29,09,23,28.00
2021,06,29,09,24,27.90
2021,06,29,09,25,27.80
2021,06,29,09,26,27.70
2021,06,29,09,27,27.60
2021,06,29,09,28,27.60
2021,06,29,09,29,27.60
2021,06,29,09,30,27.60
2021,06,29,09,31,27.70
2021,06,29,09,32,27.80
2021,06,29,09,33,27.80
2021,06,29,09,34,27.80
2021,06,29,09,35,27.80
2021,06,29,09,36,27.80
2021,06,29,09,37,27.90
2021,06,29,09,38,27.90
2021,06,29,09,39,28.00
2021,06,29,09,40,28.00
2021,06,29,09,41,27.90
2021,06,29,09,42,27.90
2021,06,29,09,43,27.80
2021,06,29,09,44,27.80
2021,06,29,09,45,27.70
2021,06,29,09,46,27.80
2021,06,29,09,47,27.80
2021,06,29,09,48,28.00
2021,06,29,09,49,28.10
2021,06,29,09,50,28.20
2021,06,29,09,51,28.30
2021,06,29,09,52,28.30
2021,06,29,09,53,28.40
2021,06,29,09,54,28.40
2021,06,29,09,55,28.50
2021,06,29,09,56,28.50
2021,06,29,09,57,28.50
2021,06,29,09,58,28.40
2021,06,29,09,59,28.50
2021,06,29,10,00,28.60
2021,06,29,10,01,28.70
2021,06,29,10,02,28.80
2021,06,29,10,03,28.80
2021,06,29,10,04,28.80
2021,06,29,10,05,28.80
2021,06,29,10,06,28.80
2021,06,29,10,07,28.80
2021,06,29,10,08,28.70
2021,06,29,10,09,28.60
2021,06,29,10,10,28.60
2021,06,29,10,11,28.50
2021,06,29,10,12,28.50
2021,06,29,10,13,28.60
2021,06,29,10,14,28.60
2021,06,29,10,15,28.70
2021,06,29,10,16,28.80
2021,06,29,10,17,28.90
2021,06,29,10,18,28.90
2021,06,29,10,19,29.00
2021,06,29,10,20,29.10
2021,06,29,10,21,29.10
2021,06,29,10,22,29.10
2021,06,29,10,23,29.10
2021,06,29,10,24,29.20
2021,06,29,10,25,29.20
2021,06,29,10,26,29.30
2021,06,29,10,27,29.30
2021,06,29,10,28,29.30
2021,06,29,10,29,29.30
2021,06,29,10,30,29.30
2021,06,29,10,31,29.40
2021,06,29,10,32,29.40
2021,06,29,10,33,29.50
2021,06,29,10,34,29.60
2021,06,29,10,35,29.60
2021,06,29,10,36,29.60
2021,06,29,10,37,29.50
2021,06,29,10,38,29.30
2021,06,29,10,39,29.20
2021,06,29,10,40,29.20
2021,06,29,10,41,29.20
2021,06,29,10,42,29.20
2021,06,29,10,43,29.20
2021,06,29,10,44,29.20
2021,06,29,10,45,29.30
2021,06,29,10,46,29.40
2021,06,29,10,47,29.40
2021,06,29,10,48,29.50
2021,06,29,10,49,29.40
2021,06,29,10,50,29.30
2021,06,29,10,51,29.20
2021,06,29,10,52,29.10
2021,06,29,10,53,29.00
2021,06,29,10,54,28.90
2021,06,29,10,55,28.90
2021,06,29,10,56,28.90
2021,06,29,10,57,28.80
2021,06,29,10,58,28.80
2021,06,29,10,59,28.80
2021,06,29,11,00,28.80
2021,06,29,11,01,28.90
2021,06,29,11,02,28.90
2021,06,29,11,03,28.90
2021,06,29,11,04,28.90
2021,06,29,11,05,29.00
2021,06,29,11,06,29.00
2021,06,29,11,07,29.00
2021,06,29,11,08,29.00
2021,06,29,11,09,29.10
2021,06,29,11,10,29.10
2021,06,29,11,11,29.10
2021,06,29,11,12,29.10
2021,06,29,11,13,29.10
2021,06,29,11,14,29.10
2021,06,29,11,15,29.00
2021,06,29,11,16,28.90
2021,06,29,11,17,28.90
2021,06,29,11,18,29.00
2021,06,29,11,19,29.00
2021,06,29,11,20,29.10
2021,06,29,11,21,29.20
2021,06,29,11,22,29.20
2021,06,29,11,23,29.20
2021,06,29,11,24,29.20
2021,06,29,11,25,29.20
2021,06,29,11,26,29.20
2021,06,29,11,27,29.30
2021,06,29,11,28,29.40
2021,06,29,11,29,29.50
2021,06,29,11,30,29.50
2021,06,29,11,31,29.50
2021,06,29,11,32,29.40
2021,06,29,11,33,29.30
2021,06,29,11,34,29.30
2021,06,29,11,35,29.30
2021,06,29,11,36,29.30
2021,06,29,11,37,29.30
2021,06,29,11,38,29.30
2021,06,29,11,39,29.30
2021,06,29,11,40,29.50
2021,06,29,11,41,29.60
2021,06,29,11,42,29.70
2021,06,29,11,43,29.70
2021,06,29,11,44,29.70
2021,06,29,11,45,29.70
2021,06,29,11,46,29.70
2021,06,29,11,47,29.80
2021,06,29,11,48,29.90
2021,06,29,11,49,29.90
2021,06,29,11,50,30.00
2021,06,29,11,51,30.00
2021,06,29,11,52,30.10
2021,06,29,11,53,30.20
2021,06,29,11,54,30.30
2021,06,29,11,55,30.40
2021,06,29,11,56,30.50
2021,06,29,11,57,30.60
2021,06,29,11,58,30.70
2021,06,29,11,59,30.90
2021,06,29,12,00,31.00
2021,06,29,12,01,31.30
2021,06,29,12,02,31.50
2021,06,29,12,03,31.70
2021,06,29,12,04,31.90
2021,06,29,12,05,32.00
2021,06,29,12,06,32.10
2021,06,29,12,07,32.20
2021,06,29,12,08,32.30
2021,06,29,12,09,32.30
2021,06,29,12,10,32.30
2021,06,29,12,11,32.30
2021,06,29,12,12,32.20
2021,06,29,12,13,32.10
2021,06,29,12,14,32.10
2021,06,29,12,15,32.00
2021,06,29,12,16,32.00
2021,06,29,12,17,31.90
2021,06,29,12,18,31.90
2021,06,29,12,19,31.90
2021,06,29,12,20,32.00
2021,06,29,12,21,32.10
2021,06,29,12,22,32.20
2021,06,29,12,23,32.30
2021,06,29,12,24,32.30
2021,06,29,12,25,32.30
2021,06,29,12,26,32.40
2021,06,29,12,27,32.40
2021,06,29,12,28,32.40
2021,06,29,12,29,32.40
2021,06,29,12,30,32.40
2021,06,29,12,31,32.40
2021,06,29,12,32,32.40
2021,06,29,12,33,32.40
2021,06,29,12,34,32.30
2021,06,29,12,35,32.30
2021,06,29,12,36,32.30
2021,06,29,12,37,32.20
2021,06,29,12,38,32.20
2021,06,29,12,39,32.20
2021,06,29,12,40,32.10
2021,06,29,12,41,32.10
2021,06,29,12,42,32.20
2021,06,29,12,43,32.20
2021,06,29,12,44,32.30
2021,06,29,12,45,32.30
2021,06,29,12,46,32.40
2021,06,29,12,47,32.40
2021,06,29,12,48,32.50
2021,06,29,12,49,32.50
2021,06,29,12,50,32.60
2021,06,29,12,51,32.60
2021,06,29,12,52,32.70
2021,06,29,12,53,32.70
2021,06,29,12,54,32.70
2021,06,29,12,55,32.80
2021,06,29,12,56,32.90
2021,06,29,12,57,33.00
2021,06,29,12,58,33.00
2021,06,29,12,59,33.10
2021,06,29,13,00,33.10
2021,06,29,13,01,33.10
2021,06,29,13,02,33.10
2021,06,29,13,03,33.10
2021,06,29,13,04,33.20
2021,06,29,13,05,33.30
2021,06,29,13,06,33.30
2021,06,29,13,07,33.40
2021,06,29,13,08,33.40
2021,06,29,13,09,33.50
2021,06,29,13,10,33.60
2021,06,29,13,11,33.60
2021,06,29,13,12,33.50
2021,06,29,13,13,33.50
2021,06,29,13,14,33.50
2021,06,29,13,15,33.60
2021,06,29,13,16,33.70
2021,06,29,13,17,33.80
2021,06,29,13,18,33.90
2021,06,29,13,19,33.80
2021,06,29,13,20,33.80
2021,06,29,13,21,33.90
2021,06,29,13,22,33.90
2021,06,29,13,23,33.90
2021,06,29,13,24,33.90
2021,06,29,13,25,33.90
2021,06,29,13,26,33.90
2021,06,29,13,27,33.90
2021,06,29,13,28,33.80
2021,06,29,13,29,33.80
2021,06,29,13,30,33.70
2021,06,29,13,31,33.70
2021,06,29,13,32,33.60
2021,06,29,13,33,33.50
2021,06,29,13,34,33.50
2021,06,29,13,35,33.50
2021,06,29,13,36,33.50
2021,06,29,13,37,33.60
2021,06,29,13,38,33.60
2021,06,29,13,39,33.60
2021,06,29,13,40,33.60
2021,06,29,13,41,33.50
2021,06,29,13,42,33.50
2021,06,29,13,43,33.50
2021,06,29,13,44,33.50
2021,06,29,13,45,33.40
2021,06,29,13,46,33.40
2021,06,29,13,47,33.40
2021,06,29,13,48,33.40
2021,06,29,13,49,33.50
2021,06,29,13,50,33.50
2021,06,29,13,51,33.50
2021,06,29,13,52,33.40
2021,06,29,13,53,33.30
2021,06,29,13,54,33.30
2021,06,29,13,55,33.20
2021,06,29,13,56,33.20
2021,06,29,13,57,33.20
2021,06,29,13,58,33.20
2021,06,29,13,59,33.30
2021,06,29,14,00,33.40
2021,06,29,14,01,33.50
2021,06,29,14,02,33.60
2021,06,29,14,03,33.60
2021,06,29,14,04,33.70
2021,06,29,14,05,33.70
2021,06,29,14,06,33.70
2021,06,29,14,07,33.70
2021,06,29,14,08,33.80
2021,06,29,14,09,33.80
2021,06,29,14,10,33.80
2021,06,29,14,11,33.80
2021,06,29,14,12,33.90
2021,06,29,14,13,33.90
2021,06,29,14,14,33.90
2021,06,29,14,15,33.80
2021,06,29,14,16,33.70
2021,06,29,14,17,33.70
2021,06,29,14,18,33.60
2021,06,29,14,19,33.50
2021,06,29,14,20,33.50
2021,06,29,14,21,33.50
2021,06,29,14,22,33.40
2021,06,29,14,23,33.40
2021,06,29,14,24,33.40
2021,06,29,14,25,33.50
2021,06,29,14,26,33.60
2021,06,29,14,27,33.70
2021,06,29,14,28,33.70
2021,06,29,14,29,33.60
2021,06,29,14,30,33.60
2021,06,29,14,31,33.60
2021,06,29,14,32,33.70
2021,06,29,14,33,33.80
2021,06,29,14,34,33.80
2021,06,29,14,35,33.70
2021,06,29,14,36,33.70
2021,06,29,14,37,33.60
2021,06,29,14,38,33.50
2021,06,29,14,39,33.50
2021,06,29,14,40,33.40
2021,06,29,14,41,33.40
2021,06,29,14,42,33.50
2021,06,29,14,43,33.60
2021,06,29,14,44,33.70
2021,06,29,14,45,33.70
2021,06,29,14,46,33.70
2021,06,29,14,47,33.60
2021,06,29,14,48,33.50
2021,06,29,14,49,33.30
2021,06,29,14,50,33.10
2021,06,29,14,51,32.90
2021,06,29,14,52,32.80
2021,06,29,14,53,32.70
2021,06,29,14,54,32.50
2021,06,29,14,55,32.40
2021,06,29,14,56,32.30
2021,06,29,14,57,32.20
2021,06,29,14,58,32.00
2021,06,29,14,59,31.90
2021,06,29,15,00,32.00
2021,06,29,15,01,32.00
2021,06,29,15,02,32.10
2021,06,29,15,03,32.10
2021,06,29,15,04,32.20
2021,06,29,15,05,32.20
2021,06,29,15,06,32.20
2021,06,29,15,07,32.20
2021,06,29,15,08,32.30
2021,06,29,15,09,32.40
2021,06,29,15,10,32.50
2021,06,29,15,11,32.60
2021,06,29,15,12,32.70
2021,06,29,15,13,32.90
2021,06,29,15,14,32.90
2021,06,29,15,15,33.00
2021,06,29,15,16,33.00
2021,06,29,15,17,33.00
2021,06,29,15,18,32.90
2021,06,29,15,19,32.90
2021,06,29,15,20,33.00
2021,06,29,15,21,33.00
2021,06,29,15,22,32.90
2021,06,29,15,23,32.80
2021,06,29,15,24,32.80
2021,06,29,15,25,32.80
2021,06,29,15,26,32.80
2021,06,29,15,27,32.80
2021,06,29,15,28,33.00
2021,06,29,15,29,33.10
2021,06,29,15,30,33.10
2021,06,29,15,31,33.20
2021,06,29,15,32,33.10
2021,06,29,15,33,33.10
2021,06,29,15,34,33.00
2021,06,29,15,35,32.90
2021,06,29,15,36,32.80
2021,06,29,15,37,32.80
2021,06,29,15,38,32.80
2021,06,29,15,39,32.80
2021,06,29,15,40,32.80
2021,06,29,15,41,32.80
2021,06,29,15,42,32.80
2021,06,29,15,43,32.80
2021,06,29,15,44,32.80
2021,06,29,15,45,32.80
2021,06,29,15,46,32.80
2021,06,29,15,47,32.80
2021,06,29,15,48,32.80
2021,06,29,15,49,32.90
2021,06,29,15,50,32.90
2021,06,29,15,51,33.00
2021,06,29,15,52,33.10
2021,06,29,15,53,33.20
2021,06,29,15,54,33.30
2021,06,29,15,55,33.30
2021,06,29,15,56,33.30
2021,06,29,15,57,33.20
2021,06,29,15,58,33.10
2021,06,29,15,59,33.00
2021,06,29,16,00,33.00
2021,06,29,16,01,33.10
2021,06,29,16,02,33.10
2021,06,29,16,03,33.20
2021,06,29,16,04,33.20
2021,06,29,16,05,33.20
2021,06,29,16,06,33.30
2021,06,29,16,07,33.30
2021,06,29,16,08,33.30
2021,06,29,16,09,33.40
2021,06,29,16,10,33.50
2021,06,29,16,11,33.60
2021,06,29,16,12,33.70
2021,06,29,16,13,33.70
2021,06,29,16,14,33.60
2021,06,29,16,15,33.40
2021,06,29,16,16,33.20
2021,06,29,16,17,33.00
2021,06,29,16,18,32.80
2021,06,29,16,19,32.60
2021,06,29,16,20,32.50
2021,06,29,16,21,32.40
2021,06,29,16,22,32.40
2021,06,29,16,23,32.50
2021,06,29,16,24,32.60
2021,06,29,16,25,32.70
2021,06,29,16,26,32.90
2021,06,29,16,27,33.00
2021,06,29,16,28,33.20
2021,06,29,16,29,33.30
2021,06,29,16,30,33.40
2021,06,29,16,31,33.40
2021,06,29,16,32,33.30
2021,06,29,16,33,33.10
2021,06,29,16,34,33.00
2021,06,29,16,35,33.00
2021,06,29,16,36,32.90
2021,06,29,16,37,32.80
2021,06,29,16,38,32.80
2021,06,29,16,39,32.70
2021,06,29,16,40,32.60
2021,06,29,16,41,32.60
2021,06,29,16,42,32.70
2021,06,29,16,43,32.80
2021,06,29,16,44,32.80
2021,06,29,16,45,32.80
2021,06,29,16,46,32.70
2021,06,29,16,47,32.60
2021,06,29,16,48,32.60
2021,06,29,16,49,32.50
2021,06,29,16,50,32.40
2021,06,29,16,51,32.40
2021,06,29,16,52,32.30
2021,06,29,16,53,32.30
2021,06,29,16,54,32.40
2021,06,29,16,55,32.30
2021,06,29,16,56,32.30
2021,06,29,16,57,32.30
2021,06,29,16,58,32.40
2021,06,29,16,59,32.50
2021,06,29,17,00,32.50
2021,06,29,17,01,32.60
2021,06,29,17,02,32.60
2021,06,29,17,03,32.60
2021,06,29,17,04,32.70
2021,06,29,17,05,32.70
2021,06,29,17,06,32.60
2021,06,29,17,07,32.60
2021,06,29,17,08,32.60
2021,06,29,17,09,32.60
2021,06,29,17,10,32.60
2021,06,29,17,11,32.60
2021,06,29,17,12,32.70
2021,06,29,17,13,32.70
2021,06,29,17,14,32.80
2021,06,29,17,15,32.80
2021,06,29,17,16,32.80
2021,06,29,17,17,32.80
2021,06,29,17,18,32.80
2021,06,29,17,19,32.80